882  
ASUS41 KCLE 181412  
RWRCLE  
OHIO REGIONAL WEATHER ROUNDUP  
NATIONAL WEATHER SERVICE WILMINGTON, OH  
1000 AM EDT WED SEP 18 2019  
 
NOTE: "FAIR" INDICATES FEW OR NO CLOUDS BELOW 12,000 FEET WITH NO  
SIGNIFICANT WEATHER AND/OR S TO VISIBILITY
.  
 
OHZ001>008-015>018-024>027-034-035-043-044-181500-  
NORTHWEST OHIO  
 
CITY SKY/WX TMP DP RH WIND PRES REMARKS
 
DEFIANCE FAIR 67 57 70 E6 30.18R  
FINDLAY FAIR 69 56 62 E8 30.17R  
TOLEDO EXPRESS FAIR 71 56 58 E5 30.18S  
TOLEDO EXEC FAIR 68 57 68 E8 30.19S  
LIMA NOT AVBL  

 
 
OHZ009>014-019>023-028>033-038-089-181500-  
NORTHEAST OHIO  
 
CITY SKY/WX TMP DP RH WIND PRES REMARKS
 
CLE-HOPKINS FAIR 70 52 52 E9 30.23S  
CLE-LAKEFRONT FAIR 70 49 47 SE15 30.20F  
CUY CO. ARPT SUNNY 66 52 59 SE10G16 30.22S  
LORAIN-ELYRIA FAIR 65 52 62 SE8 30.21S  
ASHTABULA FAIR 64 52 64 SE12 30.25F  
AKRON-CANTON FAIR 66 54 65 E9 30.22S  
WOOSTER FAIR 64 54 69 SE8 30.22S  
MANSFIELD FAIR 66 55 67 E8 30.21R  
YOUNGSTOWN FAIR 63 52 67 E8 30.24S  

 
 
OHZ042-051>053-060>062-070>072-077>081-181500-  
SOUTHWEST OHIO  
 
CITY SKY/WX TMP DP RH WIND PRES REMARKS
 
CINC-COVINGTON NOT AVBL  
CINC-LUNKEN SUNNY 72 61 68 NE9 30.11S  
HAMILTON NOT AVBL  
DAYTON NOT AVBL  
WRIGHT-PAT AFB FAIR 70 58 65 E6 30.14R  
DAYTON GENERAL NOT AVBL  
WILMINGTON NOT AVBL  

 
 
OHZ036-037-039>041-045>050-054>059-063>069-073>076-082>088-181500-  
CENTRAL AND SOUTHEAST OHIO  
 
CITY SKY/WX TMP DP RH WIND PRES REMARKS
 
COLUMBUS MOSUNNY 71 55 56 E7 30.16R  
OSU AIRPORT NOT AVBL  
BOLTON FIELD SUNNY 70 57 64 E6 30.16S  
RICKENBACK AFB FAIR 67 55 66 E8 30.15R  
NEWARK NOT AVBL  
MARION NOT AVBL  
LANCASTER NOT AVBL  
ZANESVILLE FAIR 67 52 58 E8 30.18R  
NEW PHILLY FAIR 67 52 58 VRB6 30.21S  

 
 
 
CLICK HERE TO GO TO PREVIOUS BULLETINS.

The Nexlab OH Page
The Nexlab PA Page Main Text Page